Location: Handschuheim
(48.6033°N, 7.5770°E)
Time: 18:48:15
(UTC+00:00)

Daily predictions for brighter satellites

Satellite Brightness Start Highest point End
(mag) Time Altitude Azimuth Time Altitude Azimuth Time Altitude Azimuth
Cosmos 2333 Rocket 2.8 17:48:30 10° S 17:53:38 37° ESE 17:58:51 10° NE
Cosmos 1295 Rocket 4.5 17:49:17 10° S 17:55:29 73° E 18:01:38 10° NNE
Meteor 2-4 Rocket 3.8 17:52:10 10° N 17:58:05 75° ENE 18:04:01 10° SSE
Cosmos 2322 Rocket 2.9 17:54:10 10° SW 17:59:42 59° WNW 18:05:18 10° NNE
Helios 1A Rocket 3.3 17:56:29 10° SE 18:00:17 41° ENE 18:04:05 10° N
Nadezhda 3 Rocket 4.3 17:54:20 10° N 18:00:44 80° W 18:07:05 10° S
Lacrosse 4 Rocket 2.1 17:56:46 10° S 18:00:51 38° ESE 18:05:00 10° NE
CZ-2D R/B 4.4 17:57:40 10° S 18:01:21 49° W 18:05:06 10° NNW
GP-B 3.4 17:57:57 10° SSE 18:02:09 43° E 18:06:22 10° N
ARGOS 3.2 17:59:07 10° SSE 18:04:28 63° ENE 18:09:50 10° N
ERBS 4.3 18:03:16 10° WNW 18:05:50 20° N 18:08:24 10° NE
Cosmos 1869 Rocket 4.2 18:04:39 10° SSE 18:08:36 34° E 18:12:37 10° NNE
CZ-4 R/B 1.5 18:05:57 10° S 18:09:50 80° WSW 18:13:50 10° NNW
Cosmos 2219 Rocket 2.5 18:04:51 10° S 18:10:05 43° ESE 18:15:23 10° NE
CZ-4B R/B 2.0 18:07:04 10° N 18:10:06 55° WNW 18:13:09 10° SSW
Cosmos 2154 Rocket 4.3 18:06:39 10° SSW 18:12:50 73° W 18:19:03 10° N
FALCON 9 DEB 2.9 18:10:55 10° WNW 18:14:06 75° NNE 18:16:47 13° ESE
ERS-2 2.3 18:11:06 10° NNE 18:14:40 48° E 18:18:12 10° S
CZ-2C R/B 2.9 18:09:48 10° NNE 18:15:00 44° E 18:20:03 10° S
Cosmos 1689 Rocket 2.1 18:13:24 10° NNE 18:16:15 51° E 18:19:04 10° S
Cosmos 1238 Rocket 3.9 18:13:48 10° SE 18:16:47 20° E 18:19:26 10° NE
Cosmos 1378 3.9 18:15:00 10° N 18:18:22 31° ENE 18:21:41 10° SE
USA 305 3.4 18:15:04 10° WNW 18:19:15 49° NNE 18:22:40 14° E
SL-08 RB Rocket 3.8 18:14:55 10° SSE 18:19:22 58° ENE 18:23:54 10° N
H-2A R/B 4.3 18:17:00 10° N 18:20:28 27° WNW 18:23:58 10° WSW
CREW DRAGON DEMO-1 DEB 3.7 18:20:04 10° SSW 18:22:34 29° SE 18:23:59 18° E
NOSS 3-2 (A) 4.0 18:17:46 10° S 18:22:37 31° ESE 18:28:01 10° NE
FALCON 9 DEB 2.9 18:20:22 10° WNW 18:23:33 75° NNE 18:25:51 17° ESE
HJ-1C 3.3 18:20:37 10° SSE 18:23:56 86° ENE 18:27:14 10° NNW
COSMOS 2428 2.9 18:19:24 10° S 18:24:48 47° ESE 18:30:15 10° NE
Cosmos 1733 Rocket 4.4 18:23:03 10° SE 18:26:04 19° E 18:29:08 10° NE
SL-16 R/B 3.9 18:23:10 10° WSW 18:28:16 33° NW 18:33:23 10° NNE
USA 307 3.3 18:28:50 10° WNW 18:33:02 52° NNE 18:35:52 19° E
Cosmos 2369 Rocket 4.3 18:31:54 10° NNE 18:33:18 11° NNE 18:34:42 10° NE
SL-8 Rocket 3.9 18:27:46 10° S 18:33:57 71° E 18:40:07 10° NNE
USA 306 3.3 18:30:05 10° WNW 18:34:20 54° NNE 18:37:06 20° E
CENTAUR R/B 3.3 18:29:40 10° SSE 18:34:26 26° ESE 18:39:52 10° ENE
ATLAS CENTAUR R/B 2.9 18:32:51 10° WSW 18:36:07 30° NW 18:39:28 10° NNE
Cosmos 1898 Rocket 4.5 18:31:57 10° N 18:36:29 29° NE 18:39:11 19° E
Cosmos 1066 Rocket 4.3 18:31:04 10° N 18:36:48 62° ENE 18:42:34 10° SSE
Cosmos 1743 3.7 18:37:21 10° SE 18:40:34 25° E 18:43:49 10° NNE
Cosmos 1666 2.9 18:38:36 10° SSW 18:42:19 71° WNW 18:46:04 10° N
Cosmos 1703 Rocket 4.4 18:38:49 10° NNW 18:43:06 53° W 18:47:18 10° S
USA 308 3.2 18:39:39 10° WNW 18:43:54 57° NNE 18:46:15 24° E
CSL-04 Rocket 3.8 18:39:55 10° SSE 18:45:27 80° WSW 18:50:58 10° NNW
Cosmos 2322 3.8 18:39:57 10° SSW 18:45:42 86° WNW 18:51:28 10° NNE
Meteor 1-23 Rocket 4.3 18:41:40 10° N 18:47:12 58° ENE 18:52:47 10° SSE
Okean-O 4.0 18:44:32 10° S 18:48:43 41° W 18:52:57 10° NNW
BREEZE-M DEB (TANK) 3.5 18:47:46 10° SSW 18:49:55 30° SE 18:50:06 30° SE
ASTEX 1 3.6 18:46:37 10° NNE 18:51:21 47° E 18:56:03 10° SSE
Cosmos 2366 rocket 4.0 18:45:53 10° S 18:52:12 78° E 18:58:35 10° NNE
H-2A R/B 3.6 18:47:44 10° SSW 18:52:51 40° W 18:57:57 10° NNW
Cosmos 1674 Rocket 4.3 18:50:42 10° N 18:54:32 30° ENE 18:55:15 28° E
SJ-6B 2.9 18:52:44 18° SE 18:55:35 54° ENE 18:59:30 10° N
Cosmos 990 Rocket 4.3 18:52:12 10° NNW 18:57:12 45° ENE 18:59:40 27° ESE
Cosmos 2221 Rocket 3.6 18:54:15 10° N 18:58:40 61° ENE 19:02:10 16° SSE
Ariane Rocket 3.2 18:55:34 18° SE 18:59:10 51° ENE 19:04:06 10° N
USA 186 1.0 18:59:36 66° SSE 18:59:53 82° ENE 19:02:32 10° N
Cosmos 1763 Rocket 4.2 18:57:45 10° SSE 19:02:18 30° E 19:06:52 10° NE
OBJECT-B 0.9 19:02:09 47° E 19:02:31 51° ENE 19:05:40 10° N
NOSS 3-2 (C) 3.8 18:59:13 10° S 19:04:15 35° ESE 19:08:11 18° ENE
Meteor 1-11 Rocket 3.7 19:00:30 10° SSW 19:06:11 84° WNW 19:11:47 10° N
Cosmos 1378 Rocket 4.1 19:04:56 10° N 19:09:04 36° ENE 19:09:21 35° E
Cosmos 2360 Rocket 3.9 19:05:16 10° WSW 19:10:23 34° NW 19:15:32 10° NNE
FALCON 9 DEB 3.5 19:10:14 10° WNW 19:13:18 47° SSW 19:13:45 43° S
Cosmos 468 Rocket 4.4 19:09:02 10° S 19:13:54 38° ESE 19:18:47 10° NE
Cosmos 1943 Rocket 3.5 19:09:48 10° N 19:14:20 24° NE 19:15:25 22° ENE
SJ 16-02 1.5 19:11:55 10° NNW 19:16:21 73° WSW 19:19:19 20° S
Cosmos 1821 Rocket 4.0 19:10:26 10° SSE 19:16:27 54° E 19:22:25 10° NNE
Cosmos 1727 Rocket 4.0 19:10:23 10° N 19:16:37 87° W 19:22:51 10° S
Cosmos 2237 Rocket 2.4 19:11:47 10° S 19:17:12 47° ESE 19:22:40 10° NE
DMSP B5D2-2 4.0 19:12:10 10° NNE 19:17:26 88° WNW 19:22:38 10° SSW
Cosmos 1544 2.9 19:14:37 10° S 19:18:15 73° E 19:21:56 10° NNE
Cosmos 2278 Rocket 2.2 19:12:54 10° NNW 19:18:37 87° WSW 19:22:11 24° SSE
MOS 1 4.2 19:15:42 18° SSE 19:20:02 77° ENE 19:25:43 10° NNW
Cosmos 1536 3.4 19:16:46 10° SSW 19:20:42 58° WNW 19:24:38 10° N
FALCON 9 DEB 4.0 19:18:10 10° WNW 19:21:08 36° SW 19:21:22 36° SSW
Cosmos 1000 Rocket 4.5 19:15:01 10° N 19:21:18 63° ENE 19:25:17 23° SSE
SL-4 R/B 3.9 19:19:12 10° W 19:21:36 18° SW 19:22:57 14° SSW
USA 81 4.0 19:17:03 10° S 19:22:13 60° E 19:27:24 10° NNE
SeaSat 1 2.4 19:19:14 10° NNE 19:24:13 87° WNW 19:29:09 10° SSW
SPOT 3 Rocket 3.9 19:24:25 42° E 19:25:19 46° ENE 19:30:18 10° N
Abrixas rocket 4.3 19:25:49 10° WSW 19:26:46 14° SW 19:26:46 14° SW
Cosmos 1934 Rocket 4.3 19:30:06 40° E 19:30:22 40° E 19:36:03 10° NNE
Resurs 01 Rocket 2.0 19:31:41 44° NE 19:31:41 44° NE 19:35:31 10° N
SME Rocket 3.9 19:24:30 10° NNE 19:32:04 85° ESE 19:36:59 10° SSW
Meteor 2-20 Rocket 4.3 19:26:36 10° N 19:32:44 85° ENE 19:37:09 20° S
USA 234 3.4 19:33:08 37° E 19:35:11 48° SE 19:41:28 10° SSW
Gbstr 26 Del rocket 3.4 19:32:12 10° WNW 19:36:59 79° SSW 19:38:19 52° SE
Cosmos 2333 Rocket 3.4 19:32:26 10° SW 19:37:51 43° NW 19:43:20 10° NNE
Cosmos 1937 Rocket 3.4 19:34:13 10° NNW 19:39:21 61° ENE 19:39:50 58° E
Lacrosse 4 Rocket 3.2 19:35:33 10° WSW 19:39:35 33° NW 19:43:42 10° NNE
Cosmos 2123 Rocket 4.0 19:33:39 10° N 19:39:48 55° ENE 19:41:02 47° ESE
ERBS 4.4 19:40:12 10° NW 19:42:16 21° N 19:42:16 21° N
USA 238 DEB 3.5 19:37:26 10° SW 19:44:01 82° SE 19:50:58 10° NE
USA 238 3.5 19:37:33 10° SW 19:44:07 82° SE 19:51:04 10° NE
Resurs 1-3 3.6 19:45:27 64° S 19:46:05 81° WSW 19:50:30 10° NNW
Cosmos 1842 4.1 19:42:27 10° N 19:45:12 42° N 19:45:12 42° N
DELTA 2 R/B (1) 4.5 19:41:40 10° WSW 19:46:35 33° S 19:46:36 33° S
Cosmos 2219 Rocket 3.6 19:48:57 10° WSW 19:54:07 37° NW 19:59:22 10° NNE
CZ-2C R/B 4.4 19:50:22 10° N 19:55:08 32° WNW 19:59:47 10° SW
Terra 4.0 20:00:53 14° NNE 20:00:53 14° NNE 20:01:58 10° NNE
USA 305 3.5 19:55:07 10° WNW 19:58:46 54° WSW 19:58:46 54° WSW
Cosmos 1980 3.7 19:56:16 10° SSW 20:01:55 80° WNW 20:07:37 10° NNE
Cosmos 1733 Rocket 3.9 19:59:19 10° SSW 20:03:31 48° WNW 20:07:46 10° N
COSMOS 2428 4.2 20:04:04 10° WSW 20:09:15 35° NW 20:14:29 10° NNE
Meteor 2-9 Rocket 4.1 20:10:29 67° NNE 20:10:29 67° NNE 20:15:05 10° NNE
NOSS 3-2 (A) 3.8 20:07:16 10° WSW 20:12:58 61° NW 20:19:37 10° NE
Spot 2 Rocket 4.4 20:14:35 38° NNE 20:14:35 38° NNE 20:18:00 10° N
USA 307 4.1 20:08:56 10° WNW 20:12:00 40° W 20:12:00 40° W
USA 306 4.1 20:10:12 10° WNW 20:13:13 38° W 20:13:13 38° W
Cosmos 1898 Rocket 4.2 20:13:46 10° NNW 20:18:49 49° WSW 20:19:30 46° SW
Cosmos 2369 Rocket 3.3 20:13:58 10° NNW 20:18:00 33° NNE 20:18:00 33° NNE
CENTAUR R/B 2.7 20:18:16 10° SW 20:24:17 74° NW 20:31:34 10° NE
OBJECT-B 4.2 20:35:13 10° W 20:35:13 10° W 20:35:46 10° WNW
ARIANE 5 R/B 4.5 20:39:17 26° N 20:39:17 26° N 20:41:18 10° NNW
Cosmos 1763 Rocket 4.5 20:38:50 10° SW 20:43:55 45° WNW 20:49:03 10° NNE
Cosmos 2297 4.2 20:39:56 10° NNW 20:44:36 57° WNW 20:44:36 57° WNW
USA 281 4.3 20:54:08 34° NNE 20:54:08 34° NNE 20:58:51 10° NNW
NOSS 3-2 (C) 4.0 20:49:10 10° WSW 20:54:51 55° NW 20:55:55 49° N
Cosmos 1943 Rocket 3.1 20:53:03 10° NNW 20:56:57 45° NW 20:56:57 45° NW
Cosmos 2237 Rocket 3.6 20:56:14 10° WSW 21:01:26 35° NW 21:06:40 10° NNE
Resurs 01 Rocket 4.1 21:09:14 19° WNW 21:09:14 19° WNW 21:11:25 10° NW
USA 234 4.0 21:20:31 45° W 21:20:31 45° W 21:24:54 10° WSW
Terra 4.5 21:39:46 16° NNW 21:39:46 16° NNW 21:40:43 10° NNW
Cosmos 2369 Rocket 4.4 21:57:57 10° NW 21:59:48 20° NW 21:59:48 20° NW
CENTAUR R/B 4.3 22:10:29 10° W 22:16:15 31° NNW 22:22:56 10° NE
